Atlanta, GA

4:57 PM EST on January 21, 2017 (GMT -0500)
Atlanta Fulton

Weather History for KFTY - June, 2013

Change the Weather History Date:

Saturday, June 8, 2013

  Actual Average Record
Temperature  
Mean Temperature 76 °F 75 °F  
Max Temperature 83 °F 86 °F 96 °F (2008)
Min Temperature 68 °F 65 °F 51 °F (1998)
Cooling Degree Days 11 10  
Month to date cooling degree days 92 76  
Year to date cooling degree days 255 276  
Since 1 June cooling degree days 92 76  
Growing Degree Days 25 (Base 50)    
Moisture  
Dew Point 66 °F    
Average Humidity 74    
Maximum Humidity 93    
Minimum Humidity 55    
Precipitation  
Precipitation 0.00 in 0.12 in 1.30 in (1985)
Month to date precipitation 2.05 0.93  
Year to date precipitation 12.30 22.42  
Sea Level Pressure  
Sea Level Pressure 29.97 in    
Wind  
Wind Speed 2 mph (WSW)    
Max Wind Speed 9 mph    
Max Gust Speed 12 mph    
Visibility 6 miles    
Events      
T = Trace of Precipitation, MM = Missing Value Source: NWS Daily Summary

Daily Weather History Graph

Daily Weather History Graph

Search for Another Location

Airport or City:

Trip Planner

Search our weather history database for the weather conditions in past years. The results will help you decide how hot, cold, wet, or windy it might be!

Date:

Astronomy

Jun. 08, 2013 Rise Set
Actual Time 6:27 AM EDT 8:47 PM EDT
Civil Twilight 5:58 AM EDT 9:16 PM EDT
Nautical Twilight 5:22 AM EDT 9:52 PM EDT
Astronomical Twilight 4:43 AM EDT 10:30 PM EDT
Moon 6:31 AM EDT (6/8) 8:52 PM EDT (6/8)
Length of Visible Light 15h 18m
Length of Day
14h 20m
New Moon, 0% of the Moon is Illuminated
Jun 8
New Moon
Jun 16
First Quarter
Jun 23
Full
Jun 30
Last Quarter
Jul 8
New

Hourly Weather History & Observations

Time (EDT) Temp. Heat Index Dew Point Humidity Pressure Visibility Wind Dir Wind Speed Gust Speed Precip Events Conditions
12:21 AM 69.8 °F - 66.2 °F 88% 29.90 in 6.0 mi West 4.6 mph - N/A   Overcast
12:53 AM 69.1 °F - 66.0 °F 90% 29.87 in 6.0 mi West 5.8 mph - N/A   Overcast
1:53 AM 68.0 °F - 66.0 °F 93% 29.86 in 5.0 mi Calm Calm - N/A   Overcast
2:53 AM 68.0 °F - 66.0 °F 93% 29.86 in 5.0 mi West 4.6 mph - N/A   Overcast
3:53 AM 68.0 °F - 66.0 °F 93% 29.88 in 4.0 mi West 3.5 mph - N/A   Overcast
4:53 AM 68.0 °F - 66.0 °F 93% 29.90 in 5.0 mi WSW 3.5 mph - N/A   Overcast
5:12 AM 68.0 °F - 64.4 °F 88% 29.92 in 5.0 mi WSW 3.5 mph - N/A   Overcast
5:53 AM 68.0 °F - 64.9 °F 90% 29.91 in 5.0 mi Calm Calm - N/A   Overcast
6:49 AM 68.0 °F - 64.4 °F 88% 29.95 in 4.0 mi Calm Calm - N/A   Overcast
6:53 AM 68.0 °F - 64.9 °F 90% 29.93 in 4.0 mi Calm Calm - N/A   Overcast
7:53 AM 69.1 °F - 64.9 °F 87% 29.96 in 4.0 mi WSW 3.5 mph - N/A   Overcast
8:41 AM 69.8 °F - 66.2 °F 88% 29.99 in 4.0 mi WSW 4.6 mph - N/A   Overcast
8:53 AM 70.0 °F - 64.9 °F 84% 29.98 in 4.0 mi SW 3.5 mph - N/A   Haze
9:53 AM 71.1 °F - 64.9 °F 81% 30.00 in 5.0 mi Calm Calm - N/A   Haze
10:32 AM 73.4 °F - 66.2 °F 78% 30.03 in 5.0 mi Calm Calm - N/A   Haze
10:53 AM 75.0 °F - 66.9 °F 76% 30.01 in 6.0 mi Calm Calm - N/A   Haze
11:53 AM 77.0 °F - 64.9 °F 66% 30.01 in 6.0 mi Calm Calm - N/A   Haze
12:05 PM 75.2 °F - 64.4 °F 69% 30.04 in 6.0 mi Variable 4.6 mph - N/A   Haze
12:53 PM 79.0 °F - 64.9 °F 62% 30.01 in 8.0 mi West 4.6 mph - N/A   Scattered Clouds
1:53 PM 79.0 °F - 66.0 °F 64% 30.01 in 8.0 mi NW 5.8 mph - N/A   Overcast
2:53 PM 80.1 °F 81.9 °F 64.9 °F 60% 30.00 in 8.0 mi WNW 3.5 mph - N/A   Mostly Cloudy
3:53 PM 82.0 °F 84.5 °F 66.9 °F 60% 30.00 in 8.0 mi Variable 4.6 mph - N/A   Scattered Clouds
4:53 PM 82.9 °F 84.4 °F 64.0 °F 53% 29.98 in 10.0 mi SW 4.6 mph - N/A   Partly Cloudy
5:53 PM 82.9 °F 84.4 °F 64.0 °F 53% 29.97 in 10.0 mi West 5.8 mph - N/A   Partly Cloudy
6:53 PM 82.0 °F 83.8 °F 64.9 °F 56% 29.99 in 10.0 mi West 3.5 mph - N/A   Clear
7:53 PM 81.0 °F 82.5 °F 64.0 °F 56% 30.01 in 9.0 mi South 3.5 mph - N/A   Mostly Cloudy
8:53 PM 75.0 °F - 68.0 °F 79% 30.02 in 4.0 mi Calm Calm - N/A   Haze
9:53 PM 73.0 °F - 69.1 °F 87% 30.04 in 7.0 mi Calm Calm - N/A   Clear
10:53 PM 73.9 °F - 66.9 °F 79% 30.06 in 7.0 mi Calm Calm - N/A   Clear
11:53 PM 73.9 °F - 68.0 °F 82% 30.06 in 6.0 mi Calm Calm - N/A   Haze